This is the latest recevied weather packets stored in our database for station/object OE3BCB-14. If no packets are shown the sender has not sent any weather packets the latest 10 day(s).
| Time | Temp. | Humidity | Pressure | Rain* | Wind** | Luminosity | Snow |
|---|---|---|---|---|---|---|---|
| 1777983940 | 40.56° C | 20% | 1007.3 hPa | - | - | 69 W/m² | - |
| 1777983638 | 38.33° C | 21% | 1007.4 hPa | - | - | 67 W/m² | - |
| 1777983335 | 37.22° C | 21% | 1007.4 hPa | - | - | 67 W/m² | - |
| 1777983033 | 36.11° C | 22% | 1007.6 hPa | - | - | 67 W/m² | - |
| 1777982731 | 36.11° C | 22% | 1007.7 hPa | - | - | 69 W/m² | - |
| 1777982428 | 36.11° C | 23% | 1007.9 hPa | - | - | 57 W/m² | - |
| 1777982126 | 37.78° C | 21% | 1007.9 hPa | - | - | 72 W/m² | - |
| 1777981823 | 37.22° C | 23% | 1008 hPa | - | - | 73 W/m² | - |
| 1777981521 | 37.22° C | 23% | 1008.1 hPa | - | - | 75 W/m² | - |
| 1777981219 | 38.33° C | 23% | 1008.2 hPa | - | - | 76 W/m² | - |
| 1777980916 | 38.89° C | 23% | 1008.3 hPa | - | - | 78 W/m² | - |
| 1777980614 | 36.67° C | 25% | 1008.4 hPa | - | - | 79 W/m² | - |
| 1777980311 | 36.67° C | 25% | 1008.6 hPa | - | - | 80 W/m² | - |
| 1777980009 | 36.67° C | 24% | 1008.6 hPa | - | - | 81 W/m² | - |
| 1777979404 | 34.44° C | 26% | 1008.7 hPa | - | - | 83 W/m² | - |
| 1777979102 | 35.56° C | 26% | 1008.8 hPa | - | - | 83 W/m² | - |
| 1777978799 | 34.44° C | 25% | 1008.9 hPa | - | - | 83 W/m² | - |
| 1777978497 | 35° C | 26% | 1009 hPa | - | - | 83 W/m² | - |
| 1777978194 | 33.33° C | 27% | 1009.1 hPa | - | - | 83 W/m² | - |
| 1777977892 | 33.89° C | 27% | 1009.1 hPa | - | - | 83 W/m² | - |
| 1777977590 | 33.89° C | 27% | 1009.2 hPa | - | - | 83 W/m² | - |
| 1777977287 | 34.44° C | 27% | 1009.3 hPa | - | - | 83 W/m² | - |
| 1777976985 | 34.44° C | 28% | 1009.4 hPa | - | - | 85 W/m² | - |
| 1777976682 | 33.33° C | 29% | 1009.5 hPa | - | - | 89 W/m² | - |
| 1777976380 | 33.33° C | 29% | 1009.5 hPa | - | - | 93 W/m² | - |
* Rain since midnight (hover to see other rain measurements)
** Current wind speed in m/s (hover to see current wind gust speed)